Location: Unspecified
(0.0000°N, 0.0000°E)
Time: 02:50:27
(UTC+00:00)

Tiros 1 despin weight - All Passes

Search period start: 22 July 2017 00:00
Search period end: 01 August 2017 00:00
Orbit: 595 x 644 km, 48.2° (Epoch: 21 July)

Date Brightness Start Highest point End Pass type
(mag) Time Alt. Az. Time Alt. Az. Time Alt. Az.
22 Jul - 02:06:26 10° SSW 02:10:57 63° SE 02:15:31 10° NE night (unlit)
22 Jul - 14:15:03 10° NW 14:19:35 76° SW 14:24:03 10° SE daylight
23 Jul - 00:44:12 10° SSE 00:46:26 13° SE 00:48:41 10° E night (unlit)
23 Jul - 02:23:30 10° WSW 02:27:52 45° NW 02:32:16 10° NNE night (unlit)
23 Jul - 12:51:34 10° N 12:55:05 22° NE 12:58:33 10° E daylight
23 Jul - 14:32:40 10° WNW 14:36:29 27° SW 14:40:17 10° S daylight
24 Jul - 00:59:15 10° SSW 01:03:24 35° SE 01:07:35 10° ENE night (unlit)
24 Jul - 02:41:51 10° W 02:44:51 17° NW 02:47:52 10° N night (unlit)
24 Jul - 13:07:32 10° NNW 13:12:02 60° NE 13:16:28 10° SE daylight
25 Jul - 01:15:47 10° SW 01:20:19 81° NW 01:24:55 10° NE night (unlit)
25 Jul - 11:45:23 10° NNE 11:47:28 13° NE 11:49:32 10° ENE daylight
25 Jul - 13:24:33 10° NW 13:28:56 47° SW 13:33:17 10° SSE daylight
25 Jul - 23:52:28 10° S 23:55:50 21° SE 23:59:14 10° E night (unlit)
26 Jul - 01:33:20 10° WSW 01:37:15 29° NW 01:41:12 10° N night (unlit)
26 Jul - 12:00:19 10° NNW 12:04:28 33° NE 12:08:34 10° ESE daylight
26 Jul - 13:42:50 10° W 13:45:53 18° SW 13:48:55 10° S daylight
27 Jul - 00:08:21 10° SSW 00:12:46 56° SE 00:17:14 10° NE night (unlit)
27 Jul - 01:53:07 10° WNW 01:54:15 11° NW 01:55:25 10° NW night (unlit)
27 Jul - 12:16:48 10° NW 12:21:24 85° SW 12:25:56 10° SE daylight
27 Jul - 22:46:34 10° SSE 22:48:15 12° SE 22:49:55 10° ESE night (unlit)
28 Jul - 00:25:19 10° SW 00:29:41 50° NW 00:34:06 10° NNE night (unlit)
28 Jul - 10:53:30 10° N 10:56:53 20° NE 11:00:13 10° E daylight
28 Jul - 12:34:17 10° WNW 12:38:19 30° SW 12:42:18 10° S daylight
28 Jul - 23:01:14 10° SSW 23:05:13 31° SE 23:09:14 10° ENE night (unlit)
29 Jul - 00:43:29 10° W 00:46:39 19° NW 00:49:50 10° N night (unlit)
29 Jul - 11:09:20 10° NNW 11:13:50 53° NE 11:18:17 10° SE daylight
29 Jul - 12:53:48 10° WSW 12:55:17 11° SW 12:56:46 10° SSW daylight
29 Jul - 23:17:38 10° SW 23:22:08 90° WNW 23:26:40 10° NE night (unlit)
30 Jul - 09:47:34 10° NNE 09:49:15 12° NE 09:50:56 10° ENE daylight
30 Jul - 11:26:15 10° NW 11:30:45 53° SW 11:35:12 10° SSE daylight
30 Jul - 21:54:33 10° S 21:57:39 18° SE 22:00:46 10° E night (unlit)
30 Jul - 23:35:05 10° WSW 23:39:03 31° NW 23:43:05 10° NNE night (unlit)
31 Jul - 10:02:10 10° NNW 10:06:16 31° NE 10:10:19 10° ESE daylight
31 Jul - 11:44:20 10° W 11:47:41 20° SW 11:51:01 10° S daylight
31 Jul - 22:10:16 10° SSW 22:14:35 49° SE 22:18:57 10° NE night (unlit)
31 Jul - 23:54:23 10° WNW 23:56:04 12° NW 23:57:45 10° NNW night (unlit)
